Location: Unspecified
(0.0000°N, 0.0000°E)
Time: 23:05:07
(UTC+00:00)

Envisat - Pass Details

Date: 21 April 2018
Orbit: 764 x 766 km, 98.2° (Epoch: 24 April)

Event Time Altitude Azimuth Distance (km) Brightness Sun altitude
Exits shadow 19:00:04 19° 73° (ENE) 1,780 4.4 -15.0°
Drops below altitude 10° 19:03:14 10° 34° (NE) 2,292 5.2 -15.8°
Sets 19:06:10 0° 17° (NNE) 3,214 6.2 -16.5°
